McGuire AFB, NJ

12:40 AM EDT on March 23, 2017 (GMT -0400)
McGuire Air Force Base

Weather History for KWRI - May, 2013

Change the Weather History Date:

Tuesday, May 7, 2013

  Actual Average Record
Temperature  
Mean Temperature 59 °F -  
Max Temperature 68 °F 69 °F 93 °F (2000)
Min Temperature 50 °F 48 °F 37 °F (2007)
Degree Days  
Heating Degree Days 6    
Growing Degree Days 9 (Base 50)    
Moisture  
Dew Point 53 °F    
Average Humidity 94    
Maximum Humidity 100    
Minimum Humidity 67    
Precipitation  
Precipitation 0.09 in - - ()
Sea Level Pressure  
Sea Level Pressure 30.10 in    
Wind  
Wind Speed 7 mph (ENE)    
Max Wind Speed 15 mph    
Max Gust Speed 21 mph    
Visibility 5 miles    
Events Fog , Rain    
Averages and records for this station are not official NWS values.
T = Trace of Precipitation, MM = Missing Value Source: NWS Daily Summary

Daily Weather History Graph

Daily Weather History Graph

Search for Another Location

Airport or City:

Trip Planner

Search our weather history database for the weather conditions in past years. The results will help you decide how hot, cold, wet, or windy it might be!

Date:

Astronomy

May. 07, 2013 Rise Set
Actual Time 5:51 AM EDT 7:59 PM EDT
Civil Twilight 5:21 AM EDT 8:29 PM EDT
Nautical Twilight 4:44 AM EDT 9:06 PM EDT
Astronomical Twilight 4:04 AM EDT 9:46 PM EDT
Moon 4:23 AM EDT (5/7) 5:56 PM EDT (5/7)
Length of Visible Light 15h 08m
Length of Day
14h 08m
Waning Crescent, 5% of the Moon is Illuminated
May 7
Waning Crescent
May 9
New
May 18
First Quarter
May 25
Full
May 31
Last Quarter

Hourly Weather History & Observations

Time (EDT) Temp. Dew Point Humidity Pressure Visibility Wind Dir Wind Speed Gust Speed Precip Events Conditions
12:09 AM 50.0 °F 50.0 °F 100% 30.14 in 5.0 mi NE 6.9 mph - N/A   Overcast
12:12 AM 50.0 °F 50.0 °F 100% 30.14 in 4.0 mi ENE 5.8 mph - N/A   Overcast
12:16 AM 50.0 °F 50.0 °F 100% 30.14 in 4.0 mi ENE 5.8 mph - N/A   Overcast
12:36 AM 50.0 °F 50.0 °F 100% 30.14 in 3.0 mi ENE 4.6 mph - N/A   Overcast
12:55 AM 50.2 °F 49.6 °F 98% 30.13 in 3.0 mi NE 4.6 mph - N/A   Overcast
12:58 AM 50.0 °F 50.0 °F 100% 30.13 in 3.0 mi NE 5.8 mph - N/A   Overcast
1:25 AM 50.0 °F 50.0 °F 100% 30.13 in 5.0 mi NE 4.6 mph - N/A   Overcast
1:46 AM 50.0 °F 50.0 °F 100% 30.12 in 6.0 mi NE 4.6 mph - N/A   Overcast
1:55 AM 50.2 °F 50.0 °F 99% 30.12 in 6.0 mi NE 5.8 mph - N/A   Overcast
1:58 AM 50.0 °F 50.0 °F 100% 30.12 in 6.0 mi NE 5.8 mph - N/A   Overcast
2:12 AM 50.0 °F 50.0 °F 100% 30.11 in 3.0 mi NE 5.8 mph - N/A   Overcast
2:13 AM 50.0 °F 50.0 °F 100% 30.11 in 3.0 mi NE 5.8 mph - N/A   Overcast
2:15 AM 50.0 °F 50.0 °F 100% 30.11 in 3.0 mi NE 4.6 mph - N/A   Overcast
2:39 AM 50.0 °F 50.0 °F 100% 30.11 in 3.0 mi NE 5.8 mph - N/A   Overcast
2:40 AM 50.0 °F 50.0 °F 100% 30.11 in 2.5 mi NE 5.8 mph - N/A   Overcast
2:44 AM 50.0 °F 50.0 °F 100% 30.10 in 2.0 mi NE 5.8 mph - N/A   Overcast
2:46 AM 50.0 °F 50.0 °F 100% 30.10 in 1.8 mi NE 6.9 mph - N/A   Overcast
2:48 AM 50.0 °F 50.0 °F 100% 30.10 in 1.5 mi NE 6.9 mph - N/A   Overcast
2:50 AM 50.0 °F 50.0 °F 100% 30.10 in 1.2 mi NNE 6.9 mph - N/A   Overcast
2:54 AM 50.0 °F 50.0 °F 100% 30.10 in 1.0 mi NE 5.8 mph - N/A   Overcast
2:55 AM 50.5 °F 50.4 °F 99% 30.10 in 1.0 mi NE 5.8 mph - N/A   Mist
2:57 AM 50.0 °F 50.0 °F 100% 30.10 in 1.0 mi NNE 5.8 mph - N/A   Mist
3:01 AM 50.0 °F 50.0 °F 100% 30.10 in 0.8 mi NE 6.9 mph - N/A   Mist
3:14 AM 50.0 °F 50.0 °F 100% 30.10 in 0.8 mi NE 5.8 mph - N/A   Mist
3:16 AM 50.0 °F 50.0 °F 100% 30.10 in 0.5 mi NE 5.8 mph - N/A Fog Fog
3:50 AM 50.0 °F 50.0 °F 100% 30.10 in 0.8 mi NE 4.6 mph - N/A   Mist
3:55 AM 50.7 °F 50.5 °F 99% 30.10 in 0.8 mi NNE 4.6 mph - N/A   Mist
4:01 AM 50.0 °F 50.0 °F 100% 30.11 in 0.8 mi ENE 5.8 mph - N/A   Mist
4:10 AM 50.0 °F 50.0 °F 100% 30.11 in 0.8 mi ENE 3.5 mph - N/A   Mist
4:11 AM 50.0 °F 50.0 °F 100% 30.11 in 0.8 mi ENE 4.6 mph - N/A   Mist
4:21 AM 50.0 °F 50.0 °F 100% 30.11 in 0.8 mi East 3.5 mph - N/A   Mist
4:38 AM 50.0 °F 50.0 °F 100% 30.11 in 0.5 mi ENE 3.5 mph - N/A Fog Fog
4:40 AM 50.0 °F 50.0 °F 100% 30.11 in 0.5 mi ENE 3.5 mph - N/A Fog Fog
4:41 AM 50.0 °F 50.0 °F 100% 30.11 in 0.8 mi East 3.5 mph - N/A   Mist
4:50 AM 50.0 °F 50.0 °F 100% 30.10 in 0.8 mi ENE 5.8 mph - N/A   Mist
4:55 AM 50.5 °F 50.4 °F 99% 30.10 in 0.8 mi NE 6.9 mph - N/A   Mist
4:57 AM 50.0 °F 50.0 °F 100% 30.10 in 1.0 mi NE 8.1 mph - N/A   Mist
5:01 AM 50.0 °F 50.0 °F 100% 30.10 in 1.0 mi NE 8.1 mph - N/A   Mist
5:04 AM 50.0 °F 50.0 °F 100% 30.10 in 1.2 mi NNE 9.2 mph - N/A   Overcast
5:16 AM 50.0 °F 50.0 °F 100% 30.10 in 1.5 mi NE 6.9 mph - N/A   Overcast
5:20 AM 50.0 °F 50.0 °F 100% 30.10 in 1.8 mi NE 8.1 mph - N/A   Overcast
5:23 AM 50.0 °F 50.0 °F 100% 30.10 in 2.0 mi NE 8.1 mph - N/A   Overcast
5:30 AM 50.0 °F 50.0 °F 100% 30.10 in 1.8 mi NNE 9.2 mph - N/A   Overcast
5:32 AM 50.0 °F 50.0 °F 100% 30.10 in 1.5 mi NE 9.2 mph - N/A   Overcast
5:35 AM 50.0 °F 50.0 °F 100% 30.10 in 1.2 mi NE 8.1 mph - N/A   Overcast
5:38 AM 50.0 °F 50.0 °F 100% 30.10 in 1.0 mi NNE 8.1 mph - N/A   Overcast
5:42 AM 50.0 °F 50.0 °F 100% 30.10 in 1.0 mi NE 8.1 mph - N/A   Overcast
5:43 AM 50.0 °F 50.0 °F 100% 30.10 in 0.8 mi NE 8.1 mph - N/A   Overcast
5:49 AM 50.0 °F 50.0 °F 100% 30.10 in 0.5 mi NE 9.2 mph - N/A Fog Fog
5:51 AM 50.0 °F 50.0 °F 100% 30.10 in 0.8 mi NE 8.1 mph - N/A   Mist
5:52 AM 50.0 °F 50.0 °F 100% 30.10 in 0.8 mi NE 8.1 mph - N/A   Mist
5:53 AM 50.0 °F 50.0 °F 100% 30.10 in 0.8 mi NE 8.1 mph - N/A   Mist
5:54 AM 50.0 °F 50.0 °F 100% 30.10 in 0.5 mi NE 6.9 mph - N/A Fog Fog
5:55 AM 50.5 °F 50.4 °F 99% 30.10 in 0.5 mi NE 6.9 mph - N/A Fog Fog
6:03 AM 50.0 °F 50.0 °F 100% 30.10 in 0.2 mi NE 8.1 mph - N/A Fog Fog
6:04 AM 50.0 °F 50.0 °F 100% 30.10 in 0.2 mi NE 8.1 mph - N/A Fog Fog
6:07 AM 50.0 °F 50.0 °F 100% 30.10 in 0.2 mi NE 8.1 mph - N/A Fog Fog
6:09 AM 50.0 °F 50.0 °F 100% 30.10 in 0.2 mi NE 8.1 mph - N/A Fog Fog
6:13 AM 50.0 °F 50.0 °F 100% 30.10 in 0.5 mi NE 9.2 mph - N/A Fog Fog
6:17 AM 50.0 °F 50.0 °F 100% 30.10 in 0.5 mi NE 10.4 mph - N/A Fog Fog
6:34 AM 50.0 °F 50.0 °F 100% 30.11 in 0.5 mi NE 8.1 mph - N/A Fog Fog
6:38 AM 50.0 °F 50.0 °F 100% 30.11 in 0.5 mi NE 9.2 mph - N/A Fog Fog
6:39 AM 50.0 °F 50.0 °F 100% 30.11 in 0.5 mi NE 8.1 mph - N/A Fog Fog
6:51 AM 50.0 °F 50.0 °F 100% 30.12 in 0.5 mi NE 6.9 mph - N/A Fog Fog
6:52 AM 50.0 °F 50.0 °F 100% 30.12 in 0.5 mi NE 5.8 mph - N/A Fog Fog
6:53 AM 50.0 °F 50.0 °F 100% 30.12 in 0.5 mi NE 5.8 mph - N/A Fog Fog
6:54 AM 50.0 °F 50.0 °F 100% 30.12 in 0.8 mi NE 5.8 mph - N/A   Mist
6:55 AM 50.9 °F 50.5 °F 99% 30.12 in 0.8 mi NE 5.8 mph - N/A   Mist
6:56 AM 50.0 °F 50.0 °F 100% 30.12 in 0.8 mi ENE 5.8 mph - N/A   Mist
6:58 AM 50.0 °F 50.0 °F 100% 30.12 in 1.0 mi ENE 5.8 mph - N/A   Overcast
7:03 AM 51.8 °F 50.0 °F 94% 30.12 in 1.0 mi ENE 5.8 mph - N/A   Overcast
7:05 AM 51.8 °F 50.0 °F 94% 30.12 in 1.2 mi NE 5.8 mph - N/A   Overcast
7:23 AM 51.8 °F 51.8 °F 100% 30.12 in 1.0 mi NE 4.6 mph - N/A   Overcast
7:29 AM 51.8 °F 51.8 °F 100% 30.12 in 1.2 mi NE 6.9 mph - N/A   Overcast
7:35 AM 51.8 °F 51.8 °F 100% 30.12 in 1.5 mi NE 6.9 mph - N/A   Overcast
7:41 AM 51.8 °F 51.8 °F 100% 30.12 in 1.8 mi NNE 6.9 mph - N/A   Overcast
7:50 AM 51.8 °F 51.8 °F 100% 30.12 in 2.0 mi NE 8.1 mph - N/A   Overcast
7:55 AM 52.0 °F 51.8 °F 99% 30.12 in 2.5 mi NE 8.1 mph - N/A   Overcast
7:57 AM 51.8 °F 51.8 °F 100% 30.12 in 3.0 mi NE 8.1 mph - N/A   Overcast
8:12 AM 53.6 °F 51.8 °F 94% 30.12 in 2.5 mi NE 6.9 mph - N/A   Overcast
8:20 AM 53.6 °F 53.6 °F 100% 30.12 in 3.0 mi NE 8.1 mph - N/A   Overcast
8:38 AM 53.6 °F 53.6 °F 100% 30.12 in 8.0 mi NE 9.2 mph - N/A   Overcast
8:55 AM 54.5 °F 54.1 °F 99% 30.12 in 10.0 mi NE 10.4 mph - N/A   Overcast
9:23 AM 55.4 °F 55.4 °F 100% 30.13 in 10.0 mi ENE 9.2 mph - N/A   Overcast
9:55 AM 56.1 °F 55.8 °F 99% 30.13 in 10.0 mi East 9.2 mph - N/A   Overcast
10:01 AM 57.2 °F 55.4 °F 94% 30.13 in 10.0 mi ENE 8.1 mph - N/A   Overcast
10:25 AM 57.2 °F 55.4 °F 94% 30.13 in 10.0 mi ENE 8.1 mph - N/A   Overcast
10:26 AM 57.2 °F 55.4 °F 94% 30.13 in 10.0 mi ENE 9.2 mph - N/A   Overcast
10:34 AM 57.2 °F 55.4 °F 94% 30.13 in 10.0 mi ENE 9.2 mph - N/A   Overcast
10:55 AM 59.7 °F 55.2 °F 85% 30.13 in 10.0 mi ENE 8.1 mph - N/A   Overcast
10:59 AM 60.8 °F 55.4 °F 82% 30.13 in 10.0 mi ENE 10.4 mph - N/A   Overcast
11:22 AM 62.6 °F 55.4 °F 77% 30.12 in 10.0 mi ENE 10.4 mph - N/A   Mostly Cloudy
11:25 AM 62.6 °F 55.4 °F 77% 30.12 in 10.0 mi NE 9.2 mph - N/A   Mostly Cloudy
11:26 AM 62.6 °F 55.4 °F 77% 30.12 in 10.0 mi NE 8.1 mph - N/A   Scattered Clouds
11:55 AM 66.0 °F 56.8 °F 72% 30.11 in 10.0 mi NE 10.4 mph - N/A   Partly Cloudy
12:55 PM 68.2 °F 57.0 °F 67% 30.10 in 10.0 mi East 15.0 mph 19.6 mph N/A   Mostly Cloudy
1:30 PM 66.2 °F 57.2 °F 73% 30.09 in 10.0 mi ENE 11.5 mph - N/A   Mostly Cloudy
1:43 PM 64.4 °F 57.2 °F 77% 30.10 in 8.0 mi East 9.2 mph - N/A Rain Light Rain
1:46 PM 64.4 °F 57.2 °F 77% 30.10 in 6.0 mi East 9.2 mph - N/A Rain Light Rain
1:47 PM 64.4 °F 57.2 °F 77% 30.10 in 6.0 mi East 8.1 mph - N/A Rain Light Rain
1:49 PM 64.4 °F 57.2 °F 77% 30.10 in 6.0 mi East 9.2 mph - N/A Rain Light Rain
1:50 PM 62.6 °F 57.2 °F 82% 30.10 in 6.0 mi ESE 8.1 mph - N/A Rain Light Rain
1:55 PM 62.8 °F 58.3 °F 85% 30.10 in 7.0 mi ESE 5.8 mph - 0.00 in Rain Light Rain
1:58 PM 62.6 °F 59.0 °F 88% 30.10 in 6.0 mi East 5.8 mph - N/A Rain Light Rain
2:04 PM 62.6 °F 59.0 °F 88% 30.09 in 5.0 mi ENE 5.8 mph - N/A Rain Light Rain
2:09 PM 62.6 °F 59.0 °F 88% 30.09 in 10.0 mi ENE 6.9 mph - N/A   Mostly Cloudy
2:55 PM 66.2 °F 58.3 °F 76% 30.08 in 10.0 mi ENE 12.7 mph - 0.01 in   Mostly Cloudy
3:52 PM 66.2 °F 59.0 °F 78% 30.06 in 8.0 mi East 12.7 mph - N/A Rain Light Rain
3:55 PM 65.5 °F 59.2 °F 80% 30.06 in 8.0 mi East 10.4 mph - 0.00 in Rain Light Rain
4:02 PM 64.4 °F 59.0 °F 83% 30.06 in 10.0 mi East 13.8 mph 20.7 mph N/A   Mostly Cloudy
4:08 PM 64.4 °F 59.0 °F 83% 30.06 in 10.0 mi East 11.5 mph 20.7 mph N/A   Mostly Cloudy
4:18 PM 64.4 °F 59.0 °F 83% 30.06 in 10.0 mi ENE 11.5 mph - N/A   Mostly Cloudy
4:19 PM 64.4 °F 59.0 °F 83% 30.07 in 10.0 mi East 11.5 mph - N/A   Mostly Cloudy
4:21 PM 64.4 °F 59.0 °F 83% 30.07 in 10.0 mi East 9.2 mph - N/A   Mostly Cloudy
4:23 PM 64.4 °F 59.0 °F 83% 30.07 in 10.0 mi ENE 11.5 mph - N/A   Mostly Cloudy
4:26 PM 64.4 °F 59.0 °F 83% 30.07 in 10.0 mi East 10.4 mph - N/A   Mostly Cloudy
4:55 PM 63.7 °F 57.9 °F 81% 30.06 in 10.0 mi East 10.4 mph - 0.00 in   Scattered Clouds
5:55 PM 63.3 °F 57.0 °F 80% 30.05 in 10.0 mi ENE 9.2 mph - N/A   Overcast
6:37 PM 62.6 °F 57.2 °F 82% 30.05 in 8.0 mi ENE 9.2 mph - N/A Rain Light Rain
6:55 PM 61.0 °F 57.2 °F 87% 30.06 in 10.0 mi ENE 9.2 mph - 0.01 in   Light Drizzle
6:57 PM 60.8 °F 57.2 °F 88% 30.06 in 10.0 mi ENE 8.1 mph - N/A   Mostly Cloudy
7:04 PM 60.8 °F 57.2 °F 88% 30.06 in 10.0 mi ENE 10.4 mph - N/A Rain Light Rain
7:14 PM 60.8 °F 57.2 °F 88% 30.06 in 10.0 mi ENE 9.2 mph - N/A   Mostly Cloudy
7:49 PM 59.0 °F 57.2 °F 94% 30.06 in 10.0 mi East 9.2 mph - N/A Rain Light Rain
7:55 PM 59.4 °F 56.7 °F 91% 30.06 in 10.0 mi ENE 8.1 mph - 0.00 in Rain Light Rain
7:57 PM 59.0 °F 57.2 °F 94% 30.06 in 10.0 mi East 8.1 mph - N/A Rain Light Rain
7:59 PM 59.0 °F 57.2 °F 94% 30.06 in 10.0 mi ENE 10.4 mph - N/A   Mostly Cloudy
8:39 PM 59.0 °F 57.2 °F 94% 30.07 in 10.0 mi East 8.1 mph - N/A   Mostly Cloudy
8:55 PM 58.5 °F 56.7 °F 94% 30.07 in 10.0 mi ENE 10.4 mph - 0.00 in   Mostly Cloudy
9:55 PM 58.1 °F 55.8 °F 92% 30.07 in 10.0 mi ENE 9.2 mph - N/A   Mostly Cloudy
10:00 PM 57.2 °F 55.4 °F 94% 30.07 in 10.0 mi ENE 8.1 mph - N/A Rain Light Rain
10:10 PM 57.2 °F 55.4 °F 94% 30.06 in 10.0 mi ENE 9.2 mph - N/A   Overcast
10:46 PM 59.0 °F 55.4 °F 88% 30.06 in 10.0 mi East 10.4 mph - N/A Rain Light Rain
10:50 PM 59.0 °F 55.4 °F 88% 30.06 in 6.0 mi ENE 6.9 mph - N/A Rain Light Rain
10:55 PM 58.1 °F 55.9 °F 93% 30.06 in 5.0 mi ENE 9.2 mph - 0.03 in Rain Light Rain
11:03 PM 57.2 °F 55.4 °F 94% 30.06 in 10.0 mi ENE 8.1 mph - N/A   Overcast
11:08 PM 57.2 °F 55.4 °F 94% 30.06 in 10.0 mi ENE 6.9 mph - N/A   Overcast
11:14 PM 57.2 °F 55.4 °F 94% 30.06 in 10.0 mi ENE 6.9 mph - N/A   Overcast
11:32 PM 57.2 °F 55.4 °F 94% 30.05 in 10.0 mi ENE 6.9 mph - N/A   Overcast
11:39 PM 57.2 °F 55.4 °F 94% 30.05 in 10.0 mi ENE 6.9 mph - N/A   Overcast
11:41 PM 57.2 °F 55.4 °F 94% 30.05 in 10.0 mi ENE 5.8 mph - N/A   Overcast
11:44 PM 57.2 °F 55.4 °F 94% 30.05 in 10.0 mi ENE 8.1 mph - N/A Rain Light Rain
11:50 PM 57.2 °F 55.4 °F 94% 30.06 in 6.0 mi East 5.8 mph - N/A Rain Light Rain
11:51 PM 57.2 °F 57.2 °F 100% 30.06 in 5.0 mi East 5.8 mph - N/A Rain Light Rain
11:53 PM 57.2 °F 57.2 °F 100% 30.06 in 4.0 mi East 5.8 mph - N/A Rain Light Rain
11:54 PM 57.2 °F 57.2 °F 100% 30.06 in 4.0 mi ENE 6.9 mph - N/A Rain Light Rain
11:55 PM 57.6 °F 56.5 °F 96% 30.05 in 4.0 mi ENE 8.1 mph - 0.04 in Rain Rain
11:58 PM 57.2 °F 57.2 °F 100% 30.06 in 4.0 mi ENE 8.1 mph - N/A Rain Light Rain
11:59 PM 57.2 °F 57.2 °F 100% 30.06 in 4.0 mi ENE 6.9 mph - N/A Rain Light Rain